Time,TemperatureF,DewpointF,PressureIn,WindDirection,WindDirectionDegrees,WindSpeedMPH,WindSpeedGustMPH,Humidity,HourlyPrecipIn,Conditions,Clouds,dailyrainin,SoftwareType,DateUTC
2013-01-15 00:02:00,15.4,11.4,30.41,NNW,337,0.0,0.0,84,0.00,,,0.00,WUHU21623XXSP,2013-01-15 06:02:00,
2013-01-15 00:07:00,15.4,11.4,30.41,NNW,337,0.0,0.0,84,0.00,,,0.00,WUHU21623XXSP,2013-01-15 06:07:00,
2013-01-15 00:12:00,15.6,11.6,30.41,NNW,337,0.0,0.0,84,0.00,,,0.00,WUHU21623XXSP,2013-01-15 06:12:00,
2013-01-15 00:17:00,15.6,11.6,30.41,NNW,337,0.0,0.0,84,0.00,,,0.00,WUHU21623XXSP,2013-01-15 06:17:00,
2013-01-15 00:22:00,15.8,11.8,30.41,NNW,337,0.0,0.0,84,0.00,,,0.00,WUHU21623XXSP,2013-01-15 06:22:00,
2013-01-15 00:27:00,16.0,11.8,30.41,NNW,337,0.0,0.0,84,0.00,,,0.00,WUHU21623XXSP,2013-01-15 06:27:00,
2013-01-15 00:32:00,16.5,12.4,30.41,NNW,337,0.0,0.0,84,0.00,,,0.00,WUHU21623XXSP,2013-01-15 06:32:00,
2013-01-15 00:37:00,16.5,12.4,30.41,NNW,337,0.0,0.0,84,0.00,,,0.00,WUHU21623XXSP,2013-01-15 06:37:00,
2013-01-15 00:42:00,16.9,12.8,30.40,NNW,337,0.0,0.0,84,0.00,,,0.00,WUHU21623XXSP,2013-01-15 06:42:00,
2013-01-15 00:47:00,16.9,12.8,30.40,NNW,337,0.0,0.0,84,0.00,,,0.00,WUHU21623XXSP,2013-01-15 06:47:00,
2013-01-15 00:52:00,16.9,12.8,30.40,NNW,337,0.0,0.0,84,0.00,,,0.00,WUHU21623XXSP,2013-01-15 06:52:00,
2013-01-15 00:57:00,17.2,13.1,30.40,NNW,337,0.0,0.0,84,0.00,,,0.00,WUHU21623XXSP,2013-01-15 06:57:00,
2013-01-15 01:02:00,17.4,13.3,30.40,NNW,337,0.0,0.0,84,0.00,,,0.00,WUHU21623XXSP,2013-01-15 07:02:00,
2013-01-15 01:07:00,17.4,13.3,30.40,NNW,337,0.0,0.0,84,0.00,,,0.00,WUHU21623XXSP,2013-01-15 07:07:00,
2013-01-15 01:12:00,17.4,13.3,30.40,NNW,337,0.0,0.0,84,0.00,,,0.00,WUHU21623XXSP,2013-01-15 07:12:00,
2013-01-15 01:17:00,17.4,13.3,30.40,NNW,337,0.0,0.0,84,0.00,,,0.00,WUHU21623XXSP,2013-01-15 07:17:00,
2013-01-15 01:22:00,17.4,13.3,30.40,NNW,337,1.6,1.6,84,0.00,,,0.00,WUHU21623XXSP,2013-01-15 07:22:00,
2013-01-15 01:27:00,17.2,13.3,30.40,NNW,337,0.0,1.6,84,0.00,,,0.00,WUHU21623XXSP,2013-01-15 07:27:00,
2013-01-15 01:32:00,17.2,12.8,30.40,NNW,337,0.0,0.0,83,0.00,,,0.00,WUHU21623XXSP,2013-01-15 07:32:00,
2013-01-15 01:37:00,17.2,12.8,30.40,NNW,337,0.0,0.0,83,0.00,,,0.00,WUHU21623XXSP,2013-01-15 07:37:00,
2013-01-15 01:42:00,17.4,12.8,30.40,NNW,337,0.0,0.0,83,0.00,,,0.00,WUHU21623XXSP,2013-01-15 07:42:00,
2013-01-15 01:47:00,17.4,12.8,30.40,NNW,337,0.0,0.0,83,0.00,,,0.00,WUHU21623XXSP,2013-01-15 07:47:00,
2013-01-15 01:52:00,17.2,12.8,30.40,NNW,337,0.0,0.0,83,0.00,,,0.00,WUHU21623XXSP,2013-01-15 07:52:00,
2013-01-15 01:57:00,17.2,12.8,30.40,NNW,337,0.0,0.0,83,0.00,,,0.00,WUHU21623XXSP,2013-01-15 07:57:00,
2013-01-15 02:02:00,17.2,12.8,30.40,NNW,337,0.0,0.0,83,0.00,,,0.00,WUHU21623XXSP,2013-01-15 08:02:00,
2013-01-15 02:07:00,16.9,12.5,30.40,NNW,337,0.0,0.0,83,0.00,,,0.00,WUHU21623XXSP,2013-01-15 08:07:00,
2013-01-15 02:12:00,16.9,12.5,30.40,NNW,337,0.0,0.0,83,0.00,,,0.00,WUHU21623XXSP,2013-01-15 08:12:00,
2013-01-15 02:17:00,16.9,12.5,30.40,NNW,337,0.0,0.0,83,0.00,,,0.00,WUHU21623XXSP,2013-01-15 08:17:00,
2013-01-15 02:22:00,16.9,12.5,30.40,NNW,337,0.0,0.0,83,0.00,,,0.00,WUHU21623XXSP,2013-01-15 08:22:00,
2013-01-15 02:27:00,16.7,12.5,30.40,NNW,337,0.0,0.0,83,0.00,,,0.00,WUHU21623XXSP,2013-01-15 08:27:00,
2013-01-15 02:33:00,16.7,12.3,30.40,NNW,337,0.0,0.0,83,0.00,,,0.00,WUHU21623XXSP,2013-01-15 08:33:00,
2013-01-15 02:38:00,16.5,12.3,30.40,NNW,337,0.0,0.0,83,0.00,,,0.00,WUHU21623XXSP,2013-01-15 08:38:00,
2013-01-15 02:43:00,16.5,12.2,30.40,NNW,337,0.0,0.0,83,0.00,,,0.00,WUHU21623XXSP,2013-01-15 08:43:00,
2013-01-15 02:48:00,16.3,12.0,30.41,NNW,337,0.0,0.0,83,0.00,,,0.00,WUHU21623XXSP,2013-01-15 08:48:00,
2013-01-15 02:53:00,16.3,12.0,30.40,NNW,337,0.0,0.0,83,0.00,,,0.00,WUHU21623XXSP,2013-01-15 08:53:00,
2013-01-15 02:58:00,16.3,12.0,30.40,NNW,337,0.0,0.0,83,0.00,,,0.00,WUHU21623XXSP,2013-01-15 08:58:00,
2013-01-15 03:03:00,16.2,12.0,30.40,NNW,337,0.0,0.0,83,0.00,,,0.00,WUHU21623XXSP,2013-01-15 09:03:00,
2013-01-15 03:08:00,16.2,11.8,30.40,NNW,337,0.0,0.0,83,0.00,,,0.00,WUHU21623XXSP,2013-01-15 09:08:00,
2013-01-15 03:13:00,16.0,11.7,30.40,NNW,337,0.0,0.0,83,0.00,,,0.00,WUHU21623XXSP,2013-01-15 09:13:00,
2013-01-15 03:19:00,15.8,11.5,30.39,NNW,337,0.0,0.0,83,0.00,,,0.00,WUHU21623XXSP,2013-01-15 09:19:00,
2013-01-15 03:24:00,15.8,11.5,30.39,NNW,337,0.0,0.0,83,0.00,,,0.00,WUHU21623XXSP,2013-01-15 09:24:00,
2013-01-15 03:29:00,15.6,11.3,30.39,NNW,337,0.0,0.0,83,0.00,,,0.00,WUHU21623XXSP,2013-01-15 09:29:00,
2013-01-15 03:34:00,15.1,10.8,30.40,NNW,337,0.0,0.0,83,0.00,,,0.00,WUHU21623XXSP,2013-01-15 09:34:00,
2013-01-15 03:39:00,14.9,10.6,30.40,NNW,337,0.0,0.0,83,0.00,,,0.00,WUHU21623XXSP,2013-01-15 09:39:00,
2013-01-15 03:44:00,14.5,10.5,30.40,NNW,337,0.0,0.0,83,0.00,,,0.00,WUHU21623XXSP,2013-01-15 09:44:00,
2013-01-15 03:49:00,14.2,9.9,30.39,NNW,337,0.0,0.0,83,0.00,,,0.00,WUHU21623XXSP,2013-01-15 09:49:00,
2013-01-15 03:54:00,13.8,9.6,30.39,NNW,337,0.0,0.0,83,0.00,,,0.00,WUHU21623XXSP,2013-01-15 09:54:00,
2013-01-15 03:59:00,13.6,9.6,30.39,NNW,337,0.0,0.0,83,0.00,,,0.00,WUHU21623XXSP,2013-01-15 09:59:00,
2013-01-15 04:05:00,13.3,9.1,30.39,NNW,337,0.0,0.0,83,0.00,,,0.00,WUHU21623XXSP,2013-01-15 10:05:00,
2013-01-15 04:10:00,13.3,9.1,30.39,NNW,337,0.0,0.0,83,0.00,,,0.00,WUHU21623XXSP,2013-01-15 10:10:00,
2013-01-15 04:15:00,13.3,9.1,30.39,NNW,337,0.0,0.0,83,0.00,,,0.00,WUHU21623XXSP,2013-01-15 10:15:00,
2013-01-15 04:20:00,13.1,8.9,30.38,NNW,337,0.0,0.0,83,0.00,,,0.00,WUHU21623XXSP,2013-01-15 10:20:00,
2013-01-15 04:25:00,13.1,8.9,30.38,NNW,337,0.0,0.0,83,0.00,,,0.00,WUHU21623XXSP,2013-01-15 10:25:00,
2013-01-15 04:30:00,13.3,8.9,30.38,NNW,337,0.0,0.0,83,0.00,,,0.00,WUHU21623XXSP,2013-01-15 10:30:00,
2013-01-15 04:35:00,13.1,8.9,30.38,NNW,337,0.0,0.0,83,0.00,,,0.00,WUHU21623XXSP,2013-01-15 10:35:00,
2013-01-15 04:40:00,13.3,9.3,30.38,NNW,337,0.0,0.0,84,0.00,,,0.00,WUHU21623XXSP,2013-01-15 10:40:00,
2013-01-15 04:45:00,13.3,9.3,30.37,NNW,337,0.0,0.0,84,0.00,,,0.00,WUHU21623XXSP,2013-01-15 10:45:00,
2013-01-15 04:50:00,13.3,9.3,30.37,NNW,337,0.0,0.0,84,0.00,,,0.00,WUHU21623XXSP,2013-01-15 10:50:00,
2013-01-15 04:55:00,13.1,9.1,30.37,NNW,337,0.0,0.0,84,0.00,,,0.00,WUHU21623XXSP,2013-01-15 10:55:00,
2013-01-15 05:01:00,13.1,9.1,30.37,NNW,337,0.0,0.0,84,0.00,,,0.00,WUHU21623XXSP,2013-01-15 11:01:00,
2013-01-15 05:06:00,13.1,9.1,30.37,NNW,337,0.0,0.0,84,0.00,,,0.00,WUHU21623XXSP,2013-01-15 11:06:00,
2013-01-15 05:11:00,13.1,9.1,30.37,NNW,337,0.0,0.0,84,0.00,,,0.00,WUHU21623XXSP,2013-01-15 11:11:00,
2013-01-15 05:16:00,13.1,9.1,30.37,NNW,337,0.0,0.0,84,0.00,,,0.00,WUHU21623XXSP,2013-01-15 11:16:00,
2013-01-15 05:21:00,13.1,9.1,30.37,NNW,337,0.0,0.0,84,0.00,,,0.00,WUHU21623XXSP,2013-01-15 11:21:00,
2013-01-15 05:26:00,13.3,9.3,30.36,NNW,337,0.0,0.0,84,0.00,,,0.00,WUHU21623XXSP,2013-01-15 11:26:00,
2013-01-15 05:31:00,13.5,9.6,30.36,NNW,337,0.0,0.0,85,0.00,,,0.00,WUHU21623XXSP,2013-01-15 11:31:00,
2013-01-15 05:36:00,13.3,9.8,30.37,NNW,337,0.0,0.0,85,0.00,,,0.00,WUHU21623XXSP,2013-01-15 11:36:00,
2013-01-15 05:41:00,13.3,9.3,30.37,NNW,337,0.0,0.0,84,0.00,,,0.00,WUHU21623XXSP,2013-01-15 11:41:00,
2013-01-15 05:46:00,13.1,9.1,30.37,NNW,337,0.0,0.0,84,0.00,,,0.00,WUHU21623XXSP,2013-01-15 11:46:00,
2013-01-15 05:51:00,12.9,9.0,30.37,NNW,337,0.0,0.0,84,0.00,,,0.00,WUHU21623XXSP,2013-01-15 11:51:00,
2013-01-15 05:56:00,12.7,8.8,30.38,NNW,337,0.0,0.0,84,0.00,,,0.00,WUHU21623XXSP,2013-01-15 11:56:00,
2013-01-15 06:01:00,12.7,8.8,30.38,NNW,337,0.0,0.0,84,0.00,,,0.00,WUHU21623XXSP,2013-01-15 12:01:00,
2013-01-15 06:06:00,12.7,8.8,30.38,NNW,337,0.0,0.0,84,0.00,,,0.00,WUHU21623XXSP,2013-01-15 12:06:00,
2013-01-15 06:11:00,12.7,8.8,30.38,NNW,337,0.0,0.0,84,0.00,,,0.00,WUHU21623XXSP,2013-01-15 12:11:00,
2013-01-15 06:16:00,12.6,8.6,30.38,NNW,337,0.0,0.0,84,0.00,,,0.00,WUHU21623XXSP,2013-01-15 12:16:00,
2013-01-15 06:21:00,12.4,8.6,30.38,NNW,337,0.0,0.0,84,0.00,,,0.00,WUHU21623XXSP,2013-01-15 12:21:00,
2013-01-15 06:26:00,12.2,8.2,30.39,NNW,337,0.0,0.0,84,0.00,,,0.00,WUHU21623XXSP,2013-01-15 12:26:00,
2013-01-15 06:31:00,12.2,8.2,30.39,NNW,337,0.0,0.0,84,0.00,,,0.00,WUHU21623XXSP,2013-01-15 12:31:00,
2013-01-15 06:36:00,12.0,8.1,30.39,NNW,337,0.0,0.0,84,0.00,,,0.00,WUHU21623XXSP,2013-01-15 12:36:00,
2013-01-15 06:41:00,12.0,8.1,30.39,NNW,337,0.0,0.0,84,0.00,,,0.00,WUHU21623XXSP,2013-01-15 12:41:00,
2013-01-15 06:46:00,12.0,8.1,30.39,NNW,337,0.0,0.0,84,0.00,,,0.00,WUHU21623XXSP,2013-01-15 12:46:00,
2013-01-15 06:51:00,12.0,8.1,30.39,NNW,337,0.0,0.0,84,0.00,,,0.00,WUHU21623XXSP,2013-01-15 12:51:00,
2013-01-15 06:56:00,12.0,8.1,30.38,NNW,337,0.0,0.0,84,0.00,,,0.00,WUHU21623XXSP,2013-01-15 12:56:00,
2013-01-15 07:01:00,12.0,8.1,30.38,NNW,337,0.0,0.0,84,0.00,,,0.00,WUHU21623XXSP,2013-01-15 13:01:00,
2013-01-15 07:06:00,12.0,8.1,30.38,NNW,337,0.0,0.0,84,0.00,,,0.00,WUHU21623XXSP,2013-01-15 13:06:00,
2013-01-15 07:11:00,12.0,8.1,30.38,NNW,337,0.0,0.0,84,0.00,,,0.00,WUHU21623XXSP,2013-01-15 13:11:00,
2013-01-15 07:16:00,12.0,8.3,30.38,NNW,337,0.0,0.0,85,0.00,,,0.00,WUHU21623XXSP,2013-01-15 13:16:00,
2013-01-15 07:21:00,12.0,8.3,30.39,NNW,337,0.0,0.0,85,0.00,,,0.00,WUHU21623XXSP,2013-01-15 13:21:00,
2013-01-15 07:26:00,12.2,8.5,30.39,NNW,337,0.0,0.0,85,0.00,,,0.00,WUHU21623XXSP,2013-01-15 13:26:00,
2013-01-15 07:31:00,12.2,8.5,30.39,NNW,337,0.0,0.0,85,0.00,,,0.00,WUHU21623XXSP,2013-01-15 13:31:00,
2013-01-15 07:36:00,12.2,8.5,30.39,NNW,337,0.0,0.0,85,0.00,,,0.00,WUHU21623XXSP,2013-01-15 13:36:00,
2013-01-15 07:41:00,12.4,8.7,30.39,NNW,337,0.0,0.0,85,0.00,,,0.00,WUHU21623XXSP,2013-01-15 13:41:00,
2013-01-15 07:46:00,12.6,8.9,30.38,NNW,337,0.0,0.0,85,0.00,,,0.00,WUHU21623XXSP,2013-01-15 13:46:00,
2013-01-15 07:51:00,12.9,9.2,30.38,NNW,337,0.0,0.0,85,0.00,,,0.00,WUHU21623XXSP,2013-01-15 13:51:00,
2013-01-15 07:56:00,13.3,9.6,30.38,NNW,337,0.0,0.0,85,0.00,,,0.00,WUHU21623XXSP,2013-01-15 13:56:00,
2013-01-15 08:01:00,13.6,9.6,30.39,NNW,337,0.0,0.0,85,0.00,,,0.00,WUHU21623XXSP,2013-01-15 14:01:00,
2013-01-15 08:07:00,13.8,10.1,30.39,NNW,337,0.0,0.0,85,0.00,,,0.00,WUHU21623XXSP,2013-01-15 14:07:00,
2013-01-15 08:11:00,14.5,10.8,30.39,NNW,337,0.0,0.0,85,0.00,,,0.00,WUHU21623XXSP,2013-01-15 14:11:00,
2013-01-15 08:17:00,14.7,11.0,30.39,NNW,337,0.0,0.0,85,0.00,,,0.00,WUHU21623XXSP,2013-01-15 14:17:00,
2013-01-15 08:22:00,15.6,11.8,30.39,NNW,337,0.0,0.0,85,0.00,,,0.00,WUHU21623XXSP,2013-01-15 14:22:00,
2013-01-15 08:27:00,16.0,12.4,30.40,NNW,337,0.0,0.0,86,0.00,,,0.00,WUHU21623XXSP,2013-01-15 14:27:00,
2013-01-15 08:32:00,16.3,12.8,30.40,NNW,337,0.0,0.0,86,0.00,,,0.00,WUHU21623XXSP,2013-01-15 14:32:00,
2013-01-15 08:37:00,16.9,13.2,30.41,NNW,337,0.0,0.0,85,0.00,,,0.00,WUHU21623XXSP,2013-01-15 14:37:00,
2013-01-15 08:42:00,17.4,13.4,30.41,NNW,337,0.0,0.0,85,0.00,,,0.00,WUHU21623XXSP,2013-01-15 14:42:00,
2013-01-15 08:47:00,17.8,13.9,30.40,NNW,337,0.0,0.0,85,0.00,,,0.00,WUHU21623XXSP,2013-01-15 14:47:00,
2013-01-15 08:52:00,18.9,14.6,30.40,NNW,337,0.0,0.0,85,0.00,,,0.00,WUHU21623XXSP,2013-01-15 14:52:00,
2013-01-15 08:57:00,19.4,15.3,30.41,NNW,337,0.0,0.0,84,0.00,,,0.00,WUHU21623XXSP,2013-01-15 14:57:00,
2013-01-15 09:02:00,19.6,15.4,30.41,NNW,337,0.0,0.0,84,0.00,,,0.00,WUHU21623XXSP,2013-01-15 15:02:00,
2013-01-15 09:07:00,20.3,15.5,30.40,NNW,337,0.0,0.0,83,0.00,,,0.00,WUHU21623XXSP,2013-01-15 15:07:00,
2013-01-15 09:12:00,20.5,16.1,30.40,NNW,337,0.0,0.0,83,0.00,,,0.00,WUHU21623XXSP,2013-01-15 15:12:00,
2013-01-15 09:17:00,21.0,16.6,30.41,NNW,337,0.0,0.0,83,0.00,,,0.00,WUHU21623XXSP,2013-01-15 15:17:00,
2013-01-15 09:22:00,21.6,16.9,30.41,NNW,337,0.0,0.0,82,0.00,,,0.00,WUHU21623XXSP,2013-01-15 15:22:00,
2013-01-15 09:27:00,21.9,17.2,30.41,NNW,337,0.0,0.0,82,0.00,,,0.00,WUHU21623XXSP,2013-01-15 15:27:00,
2013-01-15 09:32:00,22.1,17.1,30.42,NNW,337,0.0,0.0,81,0.00,,,0.00,WUHU21623XXSP,2013-01-15 15:32:00,
2013-01-15 09:37:00,22.8,17.9,30.42,NNW,337,0.0,0.0,81,0.00,,,0.00,WUHU21623XXSP,2013-01-15 15:37:00,
2013-01-15 09:42:00,23.2,17.9,30.41,NNW,337,0.0,0.0,80,0.00,,,0.00,WUHU21623XXSP,2013-01-15 15:42:00,
2013-01-15 09:47:00,23.5,18.3,30.41,NNW,337,0.0,0.0,80,0.00,,,0.00,WUHU21623XXSP,2013-01-15 15:47:00,
2013-01-15 09:52:00,23.7,18.5,30.40,NNW,337,0.0,0.0,80,0.00,,,0.00,WUHU21623XXSP,2013-01-15 15:52:00,
2013-01-15 09:57:00,23.9,18.4,30.40,NNW,337,0.0,0.0,79,0.00,,,0.00,WUHU21623XXSP,2013-01-15 15:57:00,
2013-01-15 10:02:00,24.6,19.1,30.39,NNW,337,0.0,0.0,79,0.00,,,0.00,WUHU21623XXSP,2013-01-15 16:02:00,
2013-01-15 10:07:00,25.0,19.1,30.39,NNW,337,0.0,0.0,78,0.00,,,0.00,WUHU21623XXSP,2013-01-15 16:07:00,
2013-01-15 10:12:00,25.2,19.3,30.39,NNW,337,0.0,0.0,78,0.00,,,0.00,WUHU21623XXSP,2013-01-15 16:12:00,
2013-01-15 10:17:00,25.5,18.9,30.38,NNW,337,0.0,0.0,76,0.00,,,0.00,WUHU21623XXSP,2013-01-15 16:17:00,
2013-01-15 10:22:00,25.9,19.3,30.38,NNW,337,0.0,0.0,76,0.00,,,0.00,WUHU21623XXSP,2013-01-15 16:22:00,
2013-01-15 10:27:00,26.2,19.3,30.37,NNW,337,0.0,0.0,75,0.00,,,0.00,WUHU21623XXSP,2013-01-15 16:27:00,
2013-01-15 10:32:00,26.2,19.3,30.37,NNW,337,0.0,0.0,75,0.00,,,0.00,WUHU21623XXSP,2013-01-15 16:32:00,
2013-01-15 10:37:00,26.4,19.5,30.37,NNW,337,0.0,0.0,75,0.00,,,0.00,WUHU21623XXSP,2013-01-15 16:37:00,
2013-01-15 10:42:00,26.4,19.5,30.36,NNW,337,0.0,0.0,75,0.00,,,0.00,WUHU21623XXSP,2013-01-15 16:42:00,
2013-01-15 10:47:00,26.6,19.7,30.36,NNW,337,0.0,0.0,75,0.00,,,0.00,WUHU21623XXSP,2013-01-15 16:47:00,
2013-01-15 10:52:00,27.0,20.0,30.36,NNW,337,0.0,0.0,75,0.00,,,0.00,WUHU21623XXSP,2013-01-15 16:52:00,
2013-01-15 10:57:00,27.1,20.2,30.36,NNW,337,0.0,0.0,75,0.00,,,0.00,WUHU21623XXSP,2013-01-15 16:57:00,
2013-01-15 11:02:00,27.3,20.4,30.36,NNW,337,0.0,0.0,75,0.00,,,0.00,WUHU21623XXSP,2013-01-15 17:02:00,
2013-01-15 11:07:00,27.7,20.6,30.36,NNW,337,0.0,0.0,75,0.00,,,0.00,WUHU21623XXSP,2013-01-15 17:07:00,
2013-01-15 11:12:00,27.5,20.3,30.36,NNW,337,0.0,0.0,74,0.00,,,0.00,WUHU21623XXSP,2013-01-15 17:12:00,
2013-01-15 11:17:00,27.7,20.4,30.36,NNW,337,0.0,0.0,74,0.00,,,0.00,WUHU21623XXSP,2013-01-15 17:17:00,
2013-01-15 11:22:00,28.2,21.3,30.35,NNW,337,0.0,0.0,75,0.00,,,0.00,WUHU21623XXSP,2013-01-15 17:22:00,
2013-01-15 11:27:00,28.8,21.5,30.35,NNW,337,0.0,0.0,74,0.00,,,0.00,WUHU21623XXSP,2013-01-15 17:27:00,
2013-01-15 11:32:00,28.9,21.7,30.34,NNW,337,0.0,6.3,74,0.00,,,0.00,WUHU21623XXSP,2013-01-15 17:32:00,
2013-01-15 11:37:00,29.1,21.5,30.34,NNW,337,0.0,6.3,73,0.00,,,0.00,WUHU21623XXSP,2013-01-15 17:37:00,
2013-01-15 11:42:00,29.1,21.5,30.33,NNW,337,2.2,2.5,73,0.00,,,0.00,WUHU21623XXSP,2013-01-15 17:42:00,
2013-01-15 11:47:00,29.1,21.5,30.33,NNW,337,0.0,2.5,73,0.00,,,0.00,WUHU21623XXSP,2013-01-15 17:47:00,
2013-01-15 11:52:00,28.8,20.9,30.33,NNW,337,1.6,1.8,72,0.00,,,0.00,WUHU21623XXSP,2013-01-15 17:52:00,
2013-01-15 11:57:00,28.6,20.9,30.32,NNW,337,2.2,2.2,72,0.00,,,0.00,WUHU21623XXSP,2013-01-15 17:57:00,
2013-01-15 12:02:00,28.8,21.0,30.32,NNW,337,0.0,2.2,73,0.00,,,0.00,WUHU21623XXSP,2013-01-15 18:02:00,
2013-01-15 12:07:00,28.6,21.2,30.32,NNW,337,0.0,0.0,73,0.00,,,0.00,WUHU21623XXSP,2013-01-15 18:07:00,
2013-01-15 12:12:00,28.8,21.2,30.32,NNW,337,0.0,0.0,73,0.00,,,0.00,WUHU21623XXSP,2013-01-15 18:12:00,
2013-01-15 12:17:00,28.9,21.3,30.32,NNW,337,0.0,0.0,72,0.00,,,0.00,WUHU21623XXSP,2013-01-15 18:17:00,
2013-01-15 12:22:00,29.1,21.2,30.31,NNW,337,0.0,0.0,72,0.00,,,0.00,WUHU21623XXSP,2013-01-15 18:22:00,
2013-01-15 12:27:00,29.1,21.2,30.31,NNW,337,0.0,0.0,72,0.00,,,0.00,WUHU21623XXSP,2013-01-15 18:27:00,
2013-01-15 12:32:00,28.9,21.0,30.31,NNW,337,0.0,0.0,72,0.00,,,0.00,WUHU21623XXSP,2013-01-15 18:32:00,
2013-01-15 12:37:00,28.8,20.6,30.30,NNW,337,0.0,0.0,71,0.00,,,0.00,WUHU21623XXSP,2013-01-15 18:37:00,
2013-01-15 12:42:00,29.1,21.2,30.30,NNW,337,0.0,0.0,72,0.00,,,0.00,WUHU21623XXSP,2013-01-15 18:42:00,
2013-01-15 12:47:00,29.3,21.2,30.30,NNW,337,0.0,0.0,72,0.00,,,0.00,WUHU21623XXSP,2013-01-15 18:47:00,
2013-01-15 12:52:00,29.5,21.2,30.30,NNW,337,0.0,0.0,71,0.00,,,0.00,WUHU21623XXSP,2013-01-15 18:52:00,
2013-01-15 12:57:00,29.5,21.4,30.30,NNW,337,0.0,0.0,71,0.00,,,0.00,WUHU21623XXSP,2013-01-15 18:57:00,
2013-01-15 13:02:00,29.3,21.2,30.29,NNW,337,0.0,0.0,70,0.00,,,0.00,WUHU21623XXSP,2013-01-15 19:02:00,
2013-01-15 13:07:00,29.3,20.8,30.29,NNW,337,0.0,0.0,70,0.00,,,0.00,WUHU21623XXSP,2013-01-15 19:07:00,
2013-01-15 13:12:00,29.1,20.6,30.29,NNW,337,0.0,0.0,70,0.00,,,0.00,WUHU21623XXSP,2013-01-15 19:12:00,
2013-01-15 13:17:00,30.0,21.5,30.28,NNW,337,0.0,0.0,71,0.00,,,0.00,WUHU21623XXSP,2013-01-15 19:17:00,
2013-01-15 13:22:00,29.8,21.5,30.29,NNW,337,0.0,1.6,71,0.00,,,0.00,WUHU21623XXSP,2013-01-15 19:22:00,
2013-01-15 13:27:00,29.7,21.1,30.29,NNW,337,0.0,1.6,70,0.00,,,0.00,WUHU21623XXSP,2013-01-15 19:27:00,
2013-01-15 13:32:00,29.5,21.4,30.29,NNW,337,0.0,0.0,70,0.00,,,0.00,WUHU21623XXSP,2013-01-15 19:32:00,
2013-01-15 13:37:00,29.8,21.1,30.29,NNW,337,0.0,0.0,71,0.00,,,0.00,WUHU21623XXSP,2013-01-15 19:37:00,
2013-01-15 13:42:00,30.0,21.7,30.29,NNW,337,0.0,0.0,71,0.00,,,0.00,WUHU21623XXSP,2013-01-15 19:42:00,
2013-01-15 13:47:00,30.0,21.4,30.28,NNW,337,0.0,0.0,70,0.00,,,0.00,WUHU21623XXSP,2013-01-15 19:47:00,
2013-01-15 13:52:00,30.2,21.6,30.29,NNW,337,0.0,0.0,70,0.00,,,0.00,WUHU21623XXSP,2013-01-15 19:52:00,
2013-01-15 13:57:00,30.2,21.6,30.29,NNW,337,0.0,0.0,70,0.00,,,0.00,WUHU21623XXSP,2013-01-15 19:57:00,
2013-01-15 14:02:00,30.0,21.4,30.28,NNW,337,0.0,3.6,70,0.00,,,0.00,WUHU21623XXSP,2013-01-15 20:02:00,
2013-01-15 14:07:00,30.0,21.4,30.28,NNW,337,0.0,3.6,70,0.00,,,0.00,WUHU21623XXSP,2013-01-15 20:07:00,
2013-01-15 14:12:00,30.0,21.4,30.29,NNW,337,0.0,0.0,70,0.00,,,0.00,WUHU21623XXSP,2013-01-15 20:12:00,
2013-01-15 14:17:00,30.2,21.6,30.28,NNW,337,0.0,2.0,70,0.00,,,0.00,WUHU21623XXSP,2013-01-15 20:17:00,
2013-01-15 14:22:00,30.0,21.4,30.28,NNW,337,0.0,2.0,70,0.00,,,0.00,WUHU21623XXSP,2013-01-15 20:22:00,
2013-01-15 14:27:00,30.4,21.6,30.29,NNW,337,0.0,0.0,70,0.00,,,0.00,WUHU21623XXSP,2013-01-15 20:27:00,
2013-01-15 14:32:00,30.4,21.4,30.28,NNW,337,0.0,0.0,70,0.00,,,0.00,WUHU21623XXSP,2013-01-15 20:32:00,
2013-01-15 14:37:00,30.0,21.4,30.27,NNW,337,0.0,0.0,70,0.00,,,0.00,WUHU21623XXSP,2013-01-15 20:37:00,
2013-01-15 14:42:00,30.2,21.6,30.27,NNW,337,0.0,0.0,70,0.00,,,0.00,WUHU21623XXSP,2013-01-15 20:42:00,
2013-01-15 14:47:00,30.0,21.4,30.27,NNW,337,0.0,0.0,70,0.00,,,0.00,WUHU21623XXSP,2013-01-15 20:47:00,
2013-01-15 14:52:00,30.2,21.2,30.27,NNW,337,0.0,0.0,69,0.00,,,0.00,WUHU21623XXSP,2013-01-15 20:52:00,
2013-01-15 14:58:00,30.4,21.4,30.27,NNW,337,0.0,0.0,69,0.00,,,0.00,WUHU21623XXSP,2013-01-15 20:58:00,
2013-01-15 15:03:00,30.0,20.8,30.27,NNW,337,0.0,0.0,69,0.00,,,0.00,WUHU21623XXSP,2013-01-15 21:03:00,
2013-01-15 15:08:00,29.8,20.5,30.27,NNW,337,0.0,0.0,68,0.00,,,0.00,WUHU21623XXSP,2013-01-15 21:08:00,
2013-01-15 15:13:00,29.8,20.5,30.28,NNW,337,0.0,0.0,68,0.00,,,0.00,WUHU21623XXSP,2013-01-15 21:13:00,
2013-01-15 15:18:00,29.8,20.5,30.29,NNW,337,0.0,0.0,68,0.00,,,0.00,WUHU21623XXSP,2013-01-15 21:18:00,
2013-01-15 15:23:00,29.8,20.5,30.29,NNW,337,0.0,0.0,68,0.00,,,0.00,WUHU21623XXSP,2013-01-15 21:23:00,
2013-01-15 15:28:00,29.8,20.9,30.29,NNW,337,0.0,0.0,69,0.00,,,0.00,WUHU21623XXSP,2013-01-15 21:28:00,
2013-01-15 15:33:00,30.0,21.0,30.29,NNW,337,0.0,0.0,69,0.00,,,0.00,WUHU21623XXSP,2013-01-15 21:33:00,
2013-01-15 15:38:00,30.0,21.0,30.29,NNW,337,0.0,0.0,69,0.00,,,0.00,WUHU21623XXSP,2013-01-15 21:38:00,
2013-01-15 15:43:00,30.0,21.4,30.29,NNW,337,2.0,2.0,70,0.00,,,0.00,WUHU21623XXSP,2013-01-15 21:43:00,
2013-01-15 15:48:00,30.0,21.6,30.29,NNW,337,0.0,2.0,70,0.00,,,0.00,WUHU21623XXSP,2013-01-15 21:48:00,
2013-01-15 15:53:00,30.0,21.7,30.29,NNW,337,0.0,2.0,71,0.00,,,0.00,WUHU21623XXSP,2013-01-15 21:53:00,
2013-01-15 15:58:00,30.0,21.7,30.29,NNW,337,2.7,2.7,71,0.00,,,0.00,WUHU21623XXSP,2013-01-15 21:58:00,
2013-01-15 16:03:00,30.0,21.7,30.29,NNW,337,0.0,2.7,71,0.00,,,0.00,WUHU21623XXSP,2013-01-15 22:03:00,
2013-01-15 16:08:00,29.8,21.5,30.28,NNW,337,0.0,0.0,71,0.00,,,0.00,WUHU21623XXSP,2013-01-15 22:08:00,
2013-01-15 16:13:00,29.8,21.5,30.28,NNW,337,0.0,0.0,71,0.00,,,0.00,WUHU21623XXSP,2013-01-15 22:13:00,
2013-01-15 16:18:00,29.8,21.5,30.27,NNW,337,0.0,0.0,71,0.00,,,0.00,WUHU21623XXSP,2013-01-15 22:18:00,
2013-01-15 16:23:00,29.8,21.5,30.28,NNW,337,0.0,0.0,71,0.00,,,0.00,WUHU21623XXSP,2013-01-15 22:23:00,
2013-01-15 16:28:00,29.7,21.4,30.27,NNW,337,0.0,0.0,71,0.00,,,0.00,WUHU21623XXSP,2013-01-15 22:28:00,
2013-01-15 16:33:00,29.3,21.1,30.28,NNW,337,0.0,0.0,71,0.00,,,0.00,WUHU21623XXSP,2013-01-15 22:33:00,
2013-01-15 16:38:00,29.3,21.1,30.27,NNW,337,0.0,0.0,71,0.00,,,0.00,WUHU21623XXSP,2013-01-15 22:38:00,
2013-01-15 16:43:00,28.9,20.9,30.27,NNW,337,0.0,0.0,72,0.00,,,0.00,WUHU21623XXSP,2013-01-15 22:43:00,
2013-01-15 16:48:00,28.8,20.9,30.27,NNW,337,0.0,0.0,72,0.00,,,0.00,WUHU21623XXSP,2013-01-15 22:48:00,
2013-01-15 16:53:00,28.4,20.6,30.27,NNW,337,0.0,0.0,72,0.00,,,0.00,WUHU21623XXSP,2013-01-15 22:53:00,
2013-01-15 16:58:00,28.2,20.6,30.27,NNW,337,0.0,0.0,72,0.00,,,0.00,WUHU21623XXSP,2013-01-15 22:58:00,
2013-01-15 17:03:00,28.2,20.7,30.26,NNW,337,0.0,0.0,73,0.00,,,0.00,WUHU21623XXSP,2013-01-15 23:03:00,
2013-01-15 17:08:00,27.9,20.3,30.26,NNW,337,0.0,0.0,73,0.00,,,0.00,WUHU21623XXSP,2013-01-15 23:08:00,
2013-01-15 17:13:00,27.7,20.1,30.27,NNW,337,0.0,0.0,73,0.00,,,0.00,WUHU21623XXSP,2013-01-15 23:13:00,
2013-01-15 17:19:00,27.5,20.0,30.26,NNW,337,0.0,0.0,73,0.00,,,0.00,WUHU21623XXSP,2013-01-15 23:19:00,
2013-01-15 17:24:00,27.1,19.9,30.26,NNW,337,0.0,0.0,74,0.00,,,0.00,WUHU21623XXSP,2013-01-15 23:24:00,
2013-01-15 17:29:00,27.1,19.9,30.26,NNW,337,0.0,0.0,74,0.00,,,0.00,WUHU21623XXSP,2013-01-15 23:29:00,
2013-01-15 17:34:00,27.0,20.0,30.25,NNW,337,0.0,0.0,75,0.00,,,0.00,WUHU21623XXSP,2013-01-15 23:34:00,
2013-01-15 17:39:00,26.6,19.9,30.24,NNW,337,0.0,0.0,75,0.00,,,0.00,WUHU21623XXSP,2013-01-15 23:39:00,
2013-01-15 17:44:00,26.4,19.5,30.25,NNW,337,0.0,0.0,75,0.00,,,0.00,WUHU21623XXSP,2013-01-15 23:44:00,
2013-01-15 17:49:00,26.2,19.3,30.24,NNW,337,0.0,0.0,76,0.00,,,0.00,WUHU21623XXSP,2013-01-15 23:49:00,
2013-01-15 17:54:00,26.2,19.6,30.24,NNW,337,0.0,0.0,76,0.00,,,0.00,WUHU21623XXSP,2013-01-15 23:54:00,
2013-01-15 17:59:00,26.1,19.5,30.24,NNW,337,0.0,0.0,76,0.00,,,0.00,WUHU21623XXSP,2013-01-15 23:59:00,
2013-01-15 18:04:00,25.9,19.8,30.24,NNW,337,0.0,0.0,77,0.00,,,0.00,WUHU21623XXSP,2013-01-16 00:04:00,
2013-01-15 18:09:00,25.7,19.6,30.24,NNW,337,0.0,0.0,77,0.00,,,0.00,WUHU21623XXSP,2013-01-16 00:09:00,
2013-01-15 18:14:00,25.5,19.6,30.24,NNW,337,0.0,0.0,78,0.00,,,0.00,WUHU21623XXSP,2013-01-16 00:14:00,
2013-01-15 18:19:00,25.5,19.6,30.23,NNW,337,0.0,0.0,78,0.00,,,0.00,WUHU21623XXSP,2013-01-16 00:19:00,
2013-01-15 18:24:00,25.2,19.4,30.23,NNW,337,0.0,0.0,78,0.00,,,0.00,WUHU21623XXSP,2013-01-16 00:24:00,
2013-01-15 18:29:00,25.2,19.6,30.22,NNW,337,0.0,0.0,79,0.00,,,0.00,WUHU21623XXSP,2013-01-16 00:29:00,
2013-01-15 18:34:00,25.2,19.9,30.22,NNW,337,0.0,0.0,80,0.00,,,0.00,WUHU21623XXSP,2013-01-16 00:34:00,
2013-01-15 18:39:00,25.2,19.9,30.22,NNW,337,0.0,0.0,80,0.00,,,0.00,WUHU21623XXSP,2013-01-16 00:39:00,
2013-01-15 18:44:00,25.0,19.7,30.21,NNW,337,0.0,0.0,80,0.00,,,0.00,WUHU21623XXSP,2013-01-16 00:44:00,
2013-01-15 18:49:00,25.0,20.0,30.21,NNW,337,0.0,0.0,81,0.00,,,0.00,WUHU21623XXSP,2013-01-16 00:49:00,
2013-01-15 18:54:00,25.0,20.0,30.21,NNW,337,0.0,0.0,81,0.00,,,0.00,WUHU21623XXSP,2013-01-16 00:54:00,
2013-01-15 18:59:00,25.0,20.0,30.21,NNW,337,0.0,0.0,81,0.00,,,0.00,WUHU21623XXSP,2013-01-16 00:59:00,
2013-01-15 19:04:00,25.0,20.0,30.21,NNW,337,0.0,0.0,81,0.00,,,0.00,WUHU21623XXSP,2013-01-16 01:04:00,
2013-01-15 19:09:00,24.6,19.7,30.21,NNW,337,0.0,0.0,81,0.00,,,0.00,WUHU21623XXSP,2013-01-16 01:09:00,
2013-01-15 19:14:00,24.6,19.7,30.20,NNW,337,0.0,0.0,81,0.00,,,0.00,WUHU21623XXSP,2013-01-16 01:14:00,
2013-01-15 19:19:00,24.6,19.7,30.21,NNW,337,0.0,0.0,81,0.00,,,0.00,WUHU21623XXSP,2013-01-16 01:19:00,
2013-01-15 19:24:00,24.6,19.7,30.21,NNW,337,0.0,0.0,81,0.00,,,0.00,WUHU21623XXSP,2013-01-16 01:24:00,
2013-01-15 19:29:00,24.4,19.5,30.21,NNW,337,0.0,0.0,81,0.00,,,0.00,WUHU21623XXSP,2013-01-16 01:29:00,
2013-01-15 19:34:00,24.3,19.6,30.20,NNW,337,0.0,0.0,82,0.00,,,0.00,WUHU21623XXSP,2013-01-16 01:34:00,
2013-01-15 19:39:00,24.1,19.4,30.20,NNW,337,0.0,0.0,82,0.00,,,0.00,WUHU21623XXSP,2013-01-16 01:39:00,
2013-01-15 19:44:00,24.1,19.4,30.20,NNW,337,0.0,0.0,82,0.00,,,0.00,WUHU21623XXSP,2013-01-16 01:44:00,
2013-01-15 19:49:00,23.9,19.2,30.20,NNW,337,0.0,0.0,82,0.00,,,0.00,WUHU21623XXSP,2013-01-16 01:49:00,
2013-01-15 19:54:00,23.7,19.0,30.19,NNW,337,0.0,0.0,82,0.00,,,0.00,WUHU21623XXSP,2013-01-16 01:54:00,
2013-01-15 19:59:00,23.7,19.0,30.19,NNW,337,0.0,0.0,82,0.00,,,0.00,WUHU21623XXSP,2013-01-16 01:59:00,
2013-01-15 20:04:00,23.7,19.0,30.19,NNW,337,0.0,0.0,82,0.00,,,0.00,WUHU21623XXSP,2013-01-16 02:04:00,
2013-01-15 20:09:00,23.7,19.0,30.19,NNW,337,0.0,0.0,82,0.00,,,0.00,WUHU21623XXSP,2013-01-16 02:09:00,
2013-01-15 20:14:00,23.7,19.0,30.19,NNW,337,0.0,0.0,82,0.00,,,0.00,WUHU21623XXSP,2013-01-16 02:14:00,
2013-01-15 20:19:00,23.7,19.3,30.19,NNW,337,0.0,0.0,83,0.00,,,0.00,WUHU21623XXSP,2013-01-16 02:19:00,
2013-01-15 20:24:00,23.7,19.3,30.19,NNW,337,0.0,0.0,83,0.00,,,0.00,WUHU21623XXSP,2013-01-16 02:24:00,
2013-01-15 20:29:00,23.7,19.3,30.18,NNW,337,0.0,0.0,83,0.00,,,0.00,WUHU21623XXSP,2013-01-16 02:29:00,
2013-01-15 20:34:00,23.7,19.3,30.18,NNW,337,0.0,0.0,83,0.00,,,0.00,WUHU21623XXSP,2013-01-16 02:34:00,
2013-01-15 20:39:00,23.7,19.3,30.18,NNW,337,0.0,0.0,83,0.00,,,0.00,WUHU21623XXSP,2013-01-16 02:39:00,
2013-01-15 20:44:00,23.7,19.3,30.18,NNW,337,0.0,0.0,83,0.00,,,0.00,WUHU21623XXSP,2013-01-16 02:44:00,
2013-01-15 20:49:00,23.5,19.1,30.18,NNW,337,0.0,0.0,83,0.00,,,0.00,WUHU21623XXSP,2013-01-16 02:49:00,
2013-01-15 20:54:00,23.5,19.1,30.18,NNW,337,0.0,0.0,83,0.00,,,0.00,WUHU21623XXSP,2013-01-16 02:54:00,
2013-01-15 20:59:00,23.5,19.1,30.18,NNW,337,0.0,0.0,83,0.00,,,0.00,WUHU21623XXSP,2013-01-16 02:59:00,
2013-01-15 21:04:00,23.5,19.1,30.17,NNW,337,0.0,0.0,83,0.00,,,0.00,WUHU21623XXSP,2013-01-16 03:04:00,
2013-01-15 21:09:00,23.5,19.1,30.17,NNW,337,0.0,0.0,83,0.00,,,0.00,WUHU21623XXSP,2013-01-16 03:09:00,
2013-01-15 21:14:00,23.4,18.9,30.17,NNW,337,0.0,0.0,83,0.00,,,0.00,WUHU21623XXSP,2013-01-16 03:14:00,
2013-01-15 21:20:00,23.2,18.8,30.16,NNW,337,0.0,0.0,83,0.00,,,0.00,WUHU21623XXSP,2013-01-16 03:20:00,
2013-01-15 21:25:00,23.2,18.8,30.17,NNW,337,0.0,0.0,83,0.00,,,0.00,WUHU21623XXSP,2013-01-16 03:25:00,
2013-01-15 21:30:00,23.2,18.8,30.17,NNW,337,0.0,0.0,83,0.00,,,0.00,WUHU21623XXSP,2013-01-16 03:30:00,
2013-01-15 21:35:00,23.0,18.6,30.16,NNW,337,0.0,0.0,83,0.00,,,0.00,WUHU21623XXSP,2013-01-16 03:35:00,
2013-01-15 21:40:00,22.8,18.4,30.16,NNW,337,0.0,0.0,83,0.00,,,0.00,WUHU21623XXSP,2013-01-16 03:40:00,
2013-01-15 21:45:00,22.8,18.4,30.16,NNW,337,0.0,0.0,83,0.00,,,0.00,WUHU21623XXSP,2013-01-16 03:45:00,
2013-01-15 21:50:00,22.6,18.2,30.16,NNW,337,0.0,0.0,83,0.00,,,0.00,WUHU21623XXSP,2013-01-16 03:50:00,
2013-01-15 21:55:00,22.6,18.2,30.16,NNW,337,0.0,0.0,83,0.00,,,0.00,WUHU21623XXSP,2013-01-16 03:55:00,
2013-01-15 22:00:00,22.5,18.0,30.15,NNW,337,0.0,0.0,83,0.00,,,0.00,WUHU21623XXSP,2013-01-16 04:00:00,
2013-01-15 22:05:00,22.3,18.1,30.15,NNW,337,0.0,0.0,84,0.00,,,0.00,WUHU21623XXSP,2013-01-16 04:05:00,
2013-01-15 22:10:00,22.3,18.1,30.15,NNW,337,0.0,0.0,84,0.00,,,0.00,WUHU21623XXSP,2013-01-16 04:10:00,
2013-01-15 22:15:00,22.1,18.0,30.15,NNW,337,0.0,0.0,84,0.00,,,0.00,WUHU21623XXSP,2013-01-16 04:15:00,
2013-01-15 22:20:00,21.9,17.8,30.15,NNW,337,0.0,0.0,84,0.00,,,0.00,WUHU21623XXSP,2013-01-16 04:20:00,
2013-01-15 22:25:00,21.7,17.8,30.14,NNW,337,0.0,0.0,84,0.00,,,0.00,WUHU21623XXSP,2013-01-16 04:25:00,
2013-01-15 22:30:00,21.6,17.4,30.14,NNW,337,0.0,0.0,84,0.00,,,0.00,WUHU21623XXSP,2013-01-16 04:30:00,
2013-01-15 22:35:00,21.4,17.2,30.14,NNW,337,0.0,0.0,84,0.00,,,0.00,WUHU21623XXSP,2013-01-16 04:35:00,
2013-01-15 22:40:00,21.0,16.9,30.14,NNW,337,0.0,0.0,84,0.00,,,0.00,WUHU21623XXSP,2013-01-16 04:40:00,
2013-01-15 22:45:00,20.8,16.7,30.14,NNW,337,0.0,0.0,84,0.00,,,0.00,WUHU21623XXSP,2013-01-16 04:45:00,
2013-01-15 22:50:00,20.8,16.7,30.14,NNW,337,0.0,0.0,84,0.00,,,0.00,WUHU21623XXSP,2013-01-16 04:50:00,
2013-01-15 22:55:00,20.8,16.7,30.14,NNW,337,0.0,0.0,84,0.00,,,0.00,WUHU21623XXSP,2013-01-16 04:55:00,
2013-01-15 23:00:00,20.3,16.2,30.14,NNW,337,0.0,0.0,84,0.00,,,0.00,WUHU21623XXSP,2013-01-16 05:00:00,
2013-01-15 23:01:00,20.3,16.2,30.14,NNW,337,0.0,0.0,84,0.00,,,0.00,WUHU21623XXSP,2013-01-16 05:01:00,
2013-01-15 23:02:00,20.3,16.2,30.13,NNW,337,0.0,0.0,84,0.00,,,0.00,WUHU21623XXSP,2013-01-16 05:02:00,
2013-01-15 23:03:00,20.3,16.2,30.13,NNW,337,0.0,0.0,84,0.00,,,0.00,WUHU21623XXSP,2013-01-16 05:03:00,
2013-01-15 23:08:00,20.1,16.0,30.13,NNW,337,0.0,0.0,84,0.00,,,0.00,WUHU21623XXSP,2013-01-16 05:08:00,
2013-01-15 23:13:00,20.1,16.0,30.12,NNW,337,0.0,0.0,84,0.00,,,0.00,WUHU21623XXSP,2013-01-16 05:13:00,
2013-01-15 23:18:00,19.9,15.8,30.12,NNW,337,0.0,0.0,84,0.00,,,0.00,WUHU21623XXSP,2013-01-16 05:18:00,
2013-01-15 23:23:00,19.8,15.9,30.12,NNW,337,0.0,0.0,85,0.00,,,0.00,WUHU21623XXSP,2013-01-16 05:23:00,
2013-01-15 23:28:00,19.6,15.7,30.11,NNW,337,0.0,0.0,85,0.00,,,0.00,WUHU21623XXSP,2013-01-16 05:28:00,
2013-01-15 23:33:00,19.6,15.7,30.11,NNW,337,0.0,0.0,85,0.00,,,0.00,WUHU21623XXSP,2013-01-16 05:33:00,
2013-01-15 23:38:00,19.2,15.3,30.11,NNW,337,0.0,0.0,85,0.00,,,0.00,WUHU21623XXSP,2013-01-16 05:38:00,
2013-01-15 23:43:00,19.0,15.2,30.11,NNW,337,0.0,0.0,85,0.00,,,0.00,WUHU21623XXSP,2013-01-16 05:43:00,
2013-01-15 23:48:00,18.9,15.0,30.11,NNW,337,0.0,0.0,85,0.00,,,0.00,WUHU21623XXSP,2013-01-16 05:48:00,
2013-01-15 23:53:00,18.5,14.6,30.11,NNW,337,0.0,0.0,85,0.00,,,0.00,WUHU21623XXSP,2013-01-16 05:53:00,
2013-01-15 23:58:00,18.3,14.4,30.10,NNW,337,0.0,0.0,85,0.00,,,0.00,WUHU21623XXSP,2013-01-16 05:58:00,